Home   Weather   Cheyenne   Past weeks

Flag for USA Past Weather in Cheyenne, Wyoming, USA — Yesterday and Last 2 Weeks

Now
38 °F

Overcast.


Feels Like: 33 °F
Forecast: 34 / 47 °F
Wind: 6 mph from West

Location: Cheyenne Airport

Current Time: Apr 27, 2017 at 7:03:09 am

Latest Report: Apr 27, 2017 at 5:53 am


Visibility: 10 mi

Pressure: 29.50 "Hg (23.45 "Hg at 1855m altitude)

Humidity: 86%

Dew Point: 34 °F

Location of CheyenneLocation

Past Weather in Cheyenne — Graph

°F

Cheyenne Temperature Yesterday

Maximum temperature yesterday: 52 °F (at 2:53 pm)
Minimum temperature yesterday: 27 °F (at 1:53 am)
Average temperature yesterday: 41 °F

High & Low Weather Summary for the Past Weeks

 TemperatureHumidityPressure
High72 °F (Apr 13, 4:53 pm)100% (Apr 14, 5:19 am)30.33 "Hg (Apr 14, 5:19 am)
Low27 °F (Apr 25, 10:53 pm)10% (Apr 15, 4:53 pm)29.43 "Hg (Apr 25, 1:53 am)
Average46 °F59%29.87 "Hg
* Reported Apr 12 5:53 am — Apr 27 5:53 am, Cheyenne, Weather by CustomWeather, © 2017

Note: Actual official high and low records may vary slightly from our data, if they occured in-between our weather recording intervals... More about our weather records

Advertising

Cheyenne Weather History for the Previous 24 Hours

Scroll right to see more
 ConditionsComfort  
Time TempWeatherWind HumidityBarometerVisibility
5:53 am
Thu, Apr 27
38 °FOvercast.6 mph86%29.50 "Hg10 mi
4:53 am38 °FMostly cloudy.15 mph86%29.49 "Hg10 mi
3:53 am38 °FMostly cloudy.13 mph86%29.52 "Hg10 mi
2:53 am38 °FMostly cloudy.14 mph83%29.52 "Hg10 mi
1:53 am39 °FOvercast.20 mph79%29.54 "Hg10 mi
12:53 am40 °FMostly cloudy.16 mph77%29.56 "Hg10 mi
11:53 pm
Wed, Apr 26
42 °FMostly cloudy.9 mph65%29.56 "Hg10 mi
10:53 pm41 °FMostly cloudy.9 mph70%29.61 "Hg10 mi
9:53 pm39 °FPassing clouds.8 mph76%29.63 "Hg10 mi
8:53 pm40 °FPassing clouds.12 mph70%29.66 "Hg10 mi
7:53 pm43 °FPassing clouds.7 mph62%29.65 "Hg10 mi
6:53 pm47 °FScattered clouds.9 mph50%29.65 "Hg10 mi
5:53 pm48 °FPassing clouds.9 mph54%29.67 "Hg10 mi
5:26 pm45 °FMostly cloudy.15 mph63%29.71 "Hg10 mi
4:53 pm50 °FBroken clouds.13 mph36%29.65 "Hg10 mi
3:53 pm48 °FOvercast.21 mph46%29.67 "Hg10 mi
2:53 pm52 °FPartly sunny.18 mph27%29.65 "Hg10 mi
1:53 pm50 °FPassing clouds.16 mph28%29.68 "Hg10 mi
12:53 pm50 °FScattered clouds.21 mph32%29.69 "Hg10 mi
11:53 am51 °FScattered clouds.23 mph32%29.71 "Hg10 mi
10:53 am47 °FPartly sunny.22 mph41%29.75 "Hg10 mi
9:53 am47 °FSunny.18 mph41%29.76 "Hg10 mi
8:53 am44 °FSunny.18 mph45%29.78 "Hg10 mi
7:53 am38 °FSunny.5 mph60%29.83 "Hg10 mi
Weather by CustomWeather, © 2017

See weather overviewHow to use our weather pages